GW2410 Weather Reports


time (UTC)temp
F
wind
direction
speed
knots
gust
knots
rain 1hr
in
rain 24hr
in
rain mn
in
humidity
%
barometer
mb
20260504150903 53 333 15.6 22.6 0.00 0.12 0.00 51 1009.9
20260504140859 50 322 12.2 20.0 0.00 0.12 0.00 64 1009.8
20260504081759 54 334 8.7 11.3 0.00 0.12 0.00 50 1003.7
20260504080920 54 337 8.7 10.4 0.00 0.12 0.00 53 1003.8
20260504050001 51 288 3.5 4.3 0.00 0.12 0.12 64 1005.6
20260504045400 51 288 3.5 4.3 0.00 0.12 0.12 65 1005.5
20260504044500 50 288 3.5 4.3 0.00 0.12 0.12 66 1005.7
20260504043600 51 288 3.5 6.1 0.00 0.12 0.12 66 1005.6
20260504042701 52 287 4.3 6.1 0.00 0.12 0.12 66 1005.7
20260504041821 53 288 6.1 8.7 0.00 0.12 0.12 66 1005.6
20260504040900 52 275 5.2 9.6 0.00 0.12 0.12 69 1005.6
20260504040000 51 248 4.3 7.0 0.00 0.12 0.12 73 1005.5
20260504035400 50 259 4.3 7.0 0.00 0.12 0.12 75 1005.6
20260504034500 51 360 0.9 4.3 0.00 0.12 0.12 73 1005.6
20260504033600 51 360 0.9 3.5 0.00 0.12 0.12 73 1005.6
20260504032721 52 360 2.6 5.2 0.00 0.12 0.12 72 1005.7
20260504031821 52 360 5.2 7.8 0.00 0.12 0.12 73 1005.6
20260504030900 52 2 5.2 9.6 0.00 0.12 0.12 73 1005.5
20260504030001 52 175 3.5 5.2 0.00 0.12 0.12 71 1005.5
20260504025400 53 175 3.5 5.2 0.00 0.12 0.12 69 1005.5
20260504024500 54 173 5.2 7.8 0.00 0.12 0.12 68 1005.6
20260504023600 54 168 5.2 8.7 0.00 0.12 0.12 68 1005.5
20260504022700 55 165 5.2 8.7 0.00 0.12 0.12 65 1005.4
20260504021800 56 164 6.1 9.6 0.00 0.12 0.12 64 1005.5
20260504020900 57 159 7.0 12.2 0.00 0.12 0.12 62 1005.5
20260504020000 58 156 7.0 10.4 0.00 0.12 0.12 60 1005.6
20260504015400 59 150 5.2 8.7 0.00 0.12 0.12 59 1005.7
20260504014500 60 158 5.2 9.6 0.00 0.12 0.12 58 1005.8
20260504013601 61 162 7.0 12.2 0.00 0.12 0.12 56 1006.0
20260504012700 61 162 7.0 12.2 0.00 0.12 0.12 54 1006.1
20260504011801 63 157 6.1 10.4 0.00 0.12 0.12 53 1006.2
20260504010902 64 157 7.8 13.0 0.00 0.12 0.12 51 1006.4
20260504010001 64 156 7.0 11.3 0.00 0.12 0.12 50 1006.5
20260504005401 65 149 6.1 8.7 0.00 0.12 0.12 51 1006.6
20260504004501 65 152 5.2 7.8 0.00 0.12 0.12 51 1006.7
20260504003601 65 160 6.1 8.7 0.00 0.12 0.12 51 1006.8
20260504002722 65 158 6.1 9.6 0.00 0.12 0.12 52 1007.0
20260504001802 65 159 7.0 9.6 0.00 0.12 0.12 53 1007.1
20260504000901 65 151 6.1 10.4 0.00 0.12 0.12 52 1007.3
20260504000022 65 4 6.1 10.4 0.00 0.12 0.12 54 1007.4
20260503235422 65 6 7.0 11.3 0.00 0.12 0.12 53 1007.6
20260503234501 65 11 7.0 10.4 0.00 0.12 0.12 54 1007.8
20260503233602 64 123 7.0 12.2 0.00 0.12 0.12 53 1007.9
20260503232701 64 1 6.1 11.3 0.00 0.12 0.12 55 1008.1
20260503231801 64 98 6.1 12.2 0.00 0.12 0.12 53 1008.2
20260503230901 64 360 6.1 9.6 0.00 0.12 0.12 54 1008.4
20260503230001 64 359 7.8 13.0 0.00 0.12 0.12 51 1008.7
20260503225401 64 359 7.8 13.0 0.00 0.12 0.12 56 1008.8
20260503224501 63 358 9.6 13.0 0.00 0.12 0.12 56 1009.0
20260503223602 62 360 7.8 13.0 0.00 0.12 0.12 61 1009.3
20260503222701 61 360 5.2 9.6 0.00 0.12 0.12 68 1009.7
20260503221801 62 360 7.0 11.3 0.00 0.12 0.12 60 1009.7
20260503220901 61 360 7.8 10.4 0.00 0.12 0.12 63 1009.9
20260503220001 61 360 7.8 10.4 0.00 0.12 0.12 66 1010.1
20260503215422 61 360 7.0 10.4 0.00 0.12 0.12 66 1010.0
20260503214501 60 360 7.0 10.4 0.01 0.12 0.12 69 1010.1
20260503213602 58 1 7.8 12.2 0.03 0.12 0.12 73 1010.3
20260503212701 58 1 4.3 9.6 0.03 0.12 0.12 73 1010.2
20260503211823 55 360 2.6 4.3 0.03 0.12 0.12 76 1010.7
20260503210901 54 350 2.6 7.0 0.03 0.12 0.12 69 1011.0
20260503210003 54 328 4.3 12.2 0.03 0.12 0.12 73 1011.4
20260503205423 55 309 10.4 18.2 0.03 0.12 0.12 72 1011.8
20260503204502 58 296 14.8 25.2 0.02 0.11 0.11 61 1011.7
20260503203601 63 115 0.9 3.5 0.00 0.09 0.09 48 1011.1
20260503202702 63 121 1.7 6.1 0.00 0.09 0.09 48 1010.5
20260503201802 64 32 6.1 10.4 0.00 0.09 0.09 49 1010.8
20260503200902 64 157 3.5 7.8 0.00 0.09 0.09 54 1010.8
20260503200002 63 152 4.3 7.8 0.00 0.09 0.09 51 1011.0
20260503195402 64 155 5.2 7.8 0.00 0.09 0.09 49 1011.0
20260503194502 64 134 5.2 7.8 0.04 0.09 0.09 51 1011.1
20260503193623 64 116 2.6 6.1 0.09 0.09 0.09 56 1011.1
20260503192703 62 58 1.7 3.5 0.09 0.09 0.09 49 1011.2
20260503191803 62 51 2.6 5.2 0.09 0.09 0.09 54 1011.4
20260503190903 63 59 5.2 10.4 0.09 0.09 0.09 54 1011.4
20260503190023 61 40 9.6 15.6 0.09 0.09 0.09 59 1011.5
20260503185402 59 6 8.7 15.6 0.09 0.09 0.09 58 1011.4
20260503184502 62 274 10.4 20.0 0.05 0.05 0.05 54 1012.5
20260503183602 66 323 7.8 22.6 0.00 0.00 0.00 42 1012.0
20260503182702 67 334 7.0 12.2 0.00 0.00 0.00 36 1011.9
20260503181823 67 14 6.1 11.3 0.00 0.00 0.00 36 1011.9
20260503180902 68 2 6.1 12.2 0.00 0.00 0.00 37 1012.1
20260503180002 67 14 7.8 13.0 0.00 0.00 0.00 38 1012.4
20260503175402 67 27 7.0 12.2 0.00 0.00 0.00 38 1012.4
20260503174502 67 350 7.8 13.0 0.00 0.00 0.00 37 1012.6
20260503173603 67 347 7.8 13.9 0.00 0.00 0.00 38 1012.7
20260503172702 67 349 8.7 14.8 0.00 0.00 0.00 37 1012.8
20260503171823 67 11 7.0 11.3 0.00 0.00 0.00 39 1012.9
20260503170902 65 18 6.1 13.0 0.00 0.00 0.00 40 1013.2